Blackbird Creek Townsend DE USA current weather conditions

sailwx.info

Wind from 282 at 4 knots gusting 5

Air temperature 7.4° C

Last reported at 2019-Dec-09 13:00 UTC.
Time now 2019-Dec-09 13:55 UTC

Location: N 39°24' W 075°38'.
View on Google Maps.

See reports from other nearby stations

  
Tides and Currents Weather Stations Pressure Air Temp Water Temp Dewpoint Dewpoint Depression Visibility Wind Speed Wind Dir Waves Ship Positions
date/time (UTC)wind fromknots sea level pressurealtimeterstation pressurevisibilityair tempwater tempwave heightnotes
2019-Dec-09 13:00 282 4 gusting 5 7.4
2019-Dec-09 12:55 281 3 gusting 4 7.4
2019-Dec-09 12:50 284 3 gusting 4 7.4
2019-Dec-09 12:45 277 2 gusting 3 7.3
2019-Dec-09 12:40 280 3 gusting 5 7.3
2019-Dec-09 12:35 285 3 gusting 4 7.3
2019-Dec-09 12:30 277 2 gusting 3 7.2
2019-Dec-09 12:25 274 1 gusting 2 7.2
2019-Dec-09 12:20 288 2 gusting 4 7.1
2019-Dec-09 12:15 310 3 gusting 3 7.1
2019-Dec-09 12:10 317 3 gusting 5 7.0
2019-Dec-09 12:05 309 3 gusting 4 6.9
2019-Dec-09 12:00 324 2 gusting 3 6.8
2019-Dec-09 11:55 316 1 gusting 2 6.9
2019-Dec-09 11:50 313 2 gusting 3 6.9
2019-Dec-09 11:45 336 1 gusting 2 6.9
2019-Dec-09 11:40 330 4 gusting 7 6.9
2019-Dec-09 11:35 314 3 gusting 6 7.1
2019-Dec-09 11:30 118 1 gusting 4 7.2
2019-Dec-09 11:25 124 2 gusting 4 7.0
2019-Dec-09 11:20 107 3 gusting 5 6.7
2019-Dec-09 11:15 095 4 gusting 8 6.4
2019-Dec-09 11:10 090 5 gusting 7 6.3
2019-Dec-09 11:05 097 4 gusting 7 6.4
2019-Dec-09 11:00 088 3 gusting 5 6.3
2019-Dec-09 10:55 085 3 gusting 4 6.4
2019-Dec-09 10:50 087 3 gusting 4 6.4
2019-Dec-09 10:45 071 1 gusting 3 6.3
2019-Dec-09 10:40 075 1 gusting 2 6.3
2019-Dec-09 10:35 074 1 gusting 2 6.2
2019-Dec-09 10:30 083 1 gusting 2 6.1
2019-Dec-09 10:25 081 1 gusting 2 6.0
2019-Dec-09 10:20 082 2 gusting 2 6.0
2019-Dec-09 10:00 053 1 gusting 1 6.0
2019-Dec-09 09:55 088 1 gusting 2 5.9
2019-Dec-09 09:50 037 0 gusting 1 5.8
2019-Dec-09 09:45 5.8
2019-Dec-09 09:40 027 0 gusting 1 5.8
2019-Dec-09 09:35 033 0 gusting 1 5.8
2019-Dec-09 09:30 130 0 gusting 1 5.8
2019-Dec-09 09:25 106 0 gusting 1 5.7
2019-Dec-09 09:20 033 0 gusting 1 5.6
2019-Dec-09 09:15 089 1 gusting 2 5.7
2019-Dec-09 09:10 112 0 gusting 2 5.6
2019-Dec-09 09:05 059 1 gusting 2 5.5
2019-Dec-09 09:00 071 2 gusting 2 5.5
2019-Dec-09 08:55 113 1 gusting 2 5.6
2019-Dec-09 08:50 116 0 gusting 2 5.5
2019-Dec-09 08:45 268 0 gusting 1 5.4
2019-Dec-09 08:40 004 1 gusting 3 5.3
2019-Dec-09 08:35 080 2 gusting 3 5.3
2019-Dec-09 08:30 062 1 gusting 2 5.3
2019-Dec-09 08:25 089 1 gusting 1 5.3
2019-Dec-09 08:20 063 0 gusting 1 5.3
2019-Dec-09 08:15 045 0 gusting 0 5.3
2019-Dec-09 08:10 055 0 gusting 1 5.2
2019-Dec-09 08:05 050 1 gusting 2 5.2
2019-Dec-09 08:00 052 1 gusting 2 5.2
2019-Dec-09 07:55 052 1 gusting 1 5.1
2019-Dec-09 07:50 055 1 gusting 2 5.1
2019-Dec-09 07:45 051 1 gusting 2 5.1
2019-Dec-09 07:40 051 1 gusting 1 5.1
2019-Dec-09 07:35 068 1 gusting 1 5.1
2019-Dec-09 07:30 065 1 gusting 1 5.1
2019-Dec-09 07:25 064 0 gusting 1 5.1
2019-Dec-09 07:20 065 0 gusting 1 5.1
2019-Dec-09 07:15 066 0 gusting 1 5.1
2019-Dec-09 07:10 067 0 gusting 0 5.1
2019-Dec-09 07:05 073 0 gusting 1 5.1
2019-Dec-09 07:00 081 0 gusting 1 5.1
2019-Dec-09 06:55 063 0 gusting 0 5.1
2019-Dec-09 06:50 059 0 gusting 1 5.1
2019-Dec-09 06:45 044 0 gusting 1 5.1
2019-Dec-09 06:40 041 1 gusting 1 5.1
2019-Dec-09 06:35 026 1 gusting 2 5.1
2019-Dec-09 06:30 068 0 gusting 1 5.0
2019-Dec-09 06:25 086 1 gusting 1 5.1
2019-Dec-09 06:20 076 0 gusting 1 5.1
2019-Dec-09 06:15 5.1
2019-Dec-09 06:10 5.1
2019-Dec-09 06:05 5.1
2019-Dec-09 06:00 5.1
2019-Dec-09 05:55 5.1
2019-Dec-09 05:50 5.1
2019-Dec-09 05:45 087 0 gusting 1 5.0
2019-Dec-09 05:40 123 1 gusting 1 5.1
2019-Dec-09 05:35 280 0 gusting 1 5.3
2019-Dec-09 05:30 5.3
2019-Dec-09 05:25 292 0 gusting 1 5.3
2019-Dec-09 05:20 292 1 gusting 1 5.3
2019-Dec-09 05:15 284 1 gusting 1 5.3
2019-Dec-09 05:10 282 0 gusting 1 5.3
2019-Dec-09 05:05 312 1 gusting 1 5.2
2019-Dec-09 05:00 288 0 gusting 1 5.2
2019-Dec-09 04:55 228 0 gusting 0 5.2
2019-Dec-09 04:50 154 1 gusting 2 5.4
2019-Dec-09 04:45 150 1 gusting 2 5.7
2019-Dec-09 04:40 283 0 gusting 1 5.7
2019-Dec-09 04:35 285 1 gusting 2 5.8
2019-Dec-09 04:30 285 2 gusting 3 5.9
2019-Dec-09 04:25 287 2 gusting 3 6.0
2019-Dec-09 04:20 272 1 gusting 2 6.1
2019-Dec-09 04:15 277 1 gusting 1 6.1
2019-Dec-09 04:10 259 0 gusting 1 6.0
2019-Dec-09 04:05 226 0 gusting 1 6.0
2019-Dec-09 04:00 239 0 gusting 1 5.9
2019-Dec-09 03:55 217 0 gusting 1 5.9
2019-Dec-09 03:50 161 1 gusting 2 5.9
2019-Dec-09 03:45 158 1 gusting 3 6.0
2019-Dec-09 03:40 167 2 gusting 3 6.1
2019-Dec-09 03:35 184 2 gusting 3 6.1
2019-Dec-09 03:30 186 2 gusting 3 6.1
2019-Dec-09 03:25 183 2 gusting 4 6.0
2019-Dec-09 03:20 175 2 gusting 3 5.9
2019-Dec-09 03:15 176 2 gusting 3 5.9
2019-Dec-09 03:10 168 1 gusting 3 5.8
2019-Dec-09 03:05 167 2 gusting 4 5.6
2019-Dec-09 03:00 153 1 gusting 2 5.5
2019-Dec-09 02:55 160 1 gusting 2 5.3
2019-Dec-09 02:50 177 1 gusting 2 4.9
2019-Dec-09 02:45 159 0 gusting 2 4.6
2019-Dec-09 02:40 125 2 gusting 3 4.5
2019-Dec-09 02:35 130 2 gusting 3 5.0
2019-Dec-09 02:30 133 0 gusting 0 5.2
2019-Dec-09 02:25 133 0 gusting 0 5.2
2019-Dec-09 02:20 270 0 gusting 0 5.1
2019-Dec-09 02:15 180 0 gusting 1 4.9
2019-Dec-09 02:10 201 0 gusting 1 4.8
2019-Dec-09 02:05 158 0 gusting 1 4.8
2019-Dec-09 02:00 202 1 gusting 1 4.7
2019-Dec-09 01:55 223 0 gusting 1 4.8
2019-Dec-09 01:50 4.9
2019-Dec-09 01:45 5.0
2019-Dec-09 01:40 5.3
2019-Dec-09 01:35 264 0 gusting 0 5.3
2019-Dec-09 01:30 282 0 gusting 1 5.2
2019-Dec-09 01:25 287 0 gusting 0 5.3
2019-Dec-09 01:20 292 0 gusting 0 5.5
2019-Dec-09 01:15 137 0 gusting 1 5.5
2019-Dec-09 01:10 113 0 gusting 2 5.4
2019-Dec-09 01:05 139 1 gusting 2 5.4
2019-Dec-09 01:00 220 1 gusting 1 5.3
2019-Dec-09 00:55 165 0 gusting 2 5.2
2019-Dec-09 00:50 139 1 gusting 2 4.9
2019-Dec-09 00:45 137 1 gusting 3 4.8
2019-Dec-09 00:40 143 2 gusting 2 4.7
2019-Dec-09 00:35 141 1 gusting 2 4.7
2019-Dec-09 00:30 122 2 gusting 4 4.8
2019-Dec-09 00:25 113 1 gusting 3 4.6
2019-Dec-09 00:20 140 1 gusting 2 4.5
2019-Dec-09 00:15 151 1 gusting 3 4.3
2019-Dec-09 00:10 126 1 gusting 3 4.2
2019-Dec-09 00:05 140 2 gusting 3 4.5
2019-Dec-09 00:00 167 2 gusting 3 4.5
2019-Dec-08 23:55 160 1 gusting 4 4.3
2019-Dec-08 23:50 154 3 gusting 5 4.3
2019-Dec-08 23:45 158 2 gusting 5 4.3
2019-Dec-08 23:40 161 2 gusting 3 4.2
2019-Dec-08 23:35 161 1 gusting 2 4.0
2019-Dec-08 23:30 156 2 gusting 3 3.9
2019-Dec-08 23:25 153 2 gusting 3 3.8
2019-Dec-08 23:20 148 2 gusting 4 4.0
2019-Dec-08 23:15 138 2 gusting 3 4.2
2019-Dec-08 23:10 123 2 gusting 3 4.0
2019-Dec-08 23:05 132 2 gusting 3 3.7
2019-Dec-08 23:00 123 2 gusting 3 3.7
2019-Dec-08 22:55 098 1 gusting 2 3.7
2019-Dec-08 22:50 098 1 gusting 2 3.7
2019-Dec-08 22:45 112 1 gusting 2 4.4
2019-Dec-08 22:40 097 1 gusting 2 4.4
2019-Dec-08 22:35 100 1 gusting 2 4.4
2019-Dec-08 22:30 110 1 gusting 2 4.5
2019-Dec-08 22:25 104 2 gusting 3 4.5
2019-Dec-08 22:20 105 2 gusting 3 4.8
2019-Dec-08 22:15 107 2 gusting 3 4.9
2019-Dec-08 22:10 109 2 gusting 3 5.0
2019-Dec-08 22:05 111 2 gusting 3 5.0
2019-Dec-08 22:00 119 2 gusting 4 5.1
2019-Dec-08 21:55 118 2 gusting 4 5.2
2019-Dec-08 21:50 106 2 gusting 4 5.2
2019-Dec-08 21:45 105 3 gusting 4 5.3
2019-Dec-08 21:40 098 2 gusting 4 5.5
2019-Dec-08 21:35 104 3 gusting 3 5.5
2019-Dec-08 21:30 094 2 gusting 3 5.5
2019-Dec-08 21:25 111 2 gusting 4 5.5
2019-Dec-08 21:20 107 2 gusting 4 5.7
2019-Dec-08 21:15 122 4 gusting 5 5.7
2019-Dec-08 21:10 132 3 gusting 5 5.8
2019-Dec-08 21:05 126 4 gusting 6 5.8
2019-Dec-08 21:00 133 4 gusting 7 6.0
2019-Dec-08 20:55 126 5 gusting 7 6.1
2019-Dec-08 20:50 142 4 gusting 8 6.2
2019-Dec-08 20:45 142 5 gusting 8 6.2
2019-Dec-08 20:40 146 6 gusting 9 6.2
2019-Dec-08 20:35 144 6 gusting 9 6.3
2019-Dec-08 20:30 135 6 gusting 9 6.4
2019-Dec-08 20:25 144 5 gusting 7 6.5
2019-Dec-08 20:20 138 5 gusting 7 6.5
2019-Dec-08 20:15 152 6 gusting 10 6.6
2019-Dec-08 20:10 153 6 gusting 9 6.6
2019-Dec-08 20:05 156 5 gusting 8 6.6
2019-Dec-08 20:00 167 5 gusting 7 6.7
2019-Dec-08 19:55 144 4 gusting 6 6.9
2019-Dec-08 19:50 165 5 gusting 8 6.7
2019-Dec-08 19:45 156 5 gusting 8 6.7
2019-Dec-08 19:40 145 5 gusting 9 6.6
2019-Dec-08 19:35 129 5 gusting 8 6.6
2019-Dec-08 19:30 157 5 gusting 8 6.4
2019-Dec-08 19:25 153 6 gusting 9 6.4
2019-Dec-08 19:20 145 6 gusting 10 6.5
2019-Dec-08 19:15 162 6 gusting 9 6.6
2019-Dec-08 19:10 131 6 gusting 10 6.7
2019-Dec-08 19:05 154 5 gusting 7 6.8
2019-Dec-08 19:00 132 6 gusting 12 6.8
2019-Dec-08 18:55 123 6 gusting 10 6.7
2019-Dec-08 18:50 133 6 gusting 10 6.9
2019-Dec-08 18:45 148 6 gusting 9 6.7
2019-Dec-08 18:40 141 7 gusting 10 6.6
2019-Dec-08 18:35 160 6 gusting 10 6.6
2019-Dec-08 18:30 139 6 gusting 11 6.3
2019-Dec-08 18:25 147 7 gusting 10 6.5
2019-Dec-08 18:20 151 6 gusting 8 6.9
2019-Dec-08 18:15 150 6 gusting 9 6.8
2019-Dec-08 18:10 143 8 gusting 11 6.7
2019-Dec-08 18:05 142 8 gusting 11 6.6
2019-Dec-08 18:00 150 6 gusting 11 6.6
2019-Dec-08 17:55 152 7 gusting 10 6.1
2019-Dec-08 17:50 158 7 gusting 14 6.4
2019-Dec-08 17:45 189 5 gusting 9 6.7
2019-Dec-08 17:40 165 6 gusting 11 6.2
2019-Dec-08 17:35 156 7 gusting 10 6.1
2019-Dec-08 17:30 142 7 gusting 11 6.0
2019-Dec-08 17:25 158 7 gusting 11 6.2
2019-Dec-08 17:20 163 6 gusting 9 6.3
2019-Dec-08 17:15 157 6 gusting 10 6.0
2019-Dec-08 17:10 159 8 gusting 13 5.6
2019-Dec-08 17:05 167 6 gusting 10 5.6
2019-Dec-08 17:00 161 7 gusting 10 5.5
2019-Dec-08 16:55 154 7 gusting 13 5.7
2019-Dec-08 16:50 141 6 gusting 10 5.8
2019-Dec-08 16:45 173 7 gusting 10 5.5
2019-Dec-08 16:40 155 6 gusting 11 5.5
2019-Dec-08 16:35 159 6 gusting 10 5.7
2019-Dec-08 16:30 127 6 gusting 10 5.3
2019-Dec-08 16:25 147 6 gusting 8 5.4
2019-Dec-08 16:20 126 7 gusting 12 5.2
2019-Dec-08 16:15 145 6 gusting 9 5.2
2019-Dec-08 16:10 133 7 gusting 9 4.9
2019-Dec-08 16:05 133 8 gusting 11 4.9
2019-Dec-08 16:00 154 7 gusting 11 4.9
2019-Dec-08 15:55 141 5 gusting 11 4.8
2019-Dec-08 15:50 138 5 gusting 7 4.5
2019-Dec-08 15:45 115 5 gusting 9 4.4
2019-Dec-08 15:40 133 3 gusting 6 4.4
2019-Dec-08 15:35 131 4 gusting 6 4.4
2019-Dec-08 15:30 110 4 gusting 5 4.0
2019-Dec-08 15:25 114 3 gusting 6 3.8
2019-Dec-08 15:20 116 2 gusting 4 3.5
2019-Dec-08 15:15 106 3 gusting 4 3.2
2019-Dec-08 15:10 118 3 gusting 5 3.2
2019-Dec-08 15:05 109 3 gusting 5 3.1
2019-Dec-08 15:00 111 2 gusting 4 3.2
2019-Dec-08 14:55 114 2 gusting 5 2.8
2019-Dec-08 14:50 108 2 gusting 5 2.7
2019-Dec-08 14:45 119 1 gusting 4 2.6
2019-Dec-08 14:40 114 1 gusting 2 2.2
2019-Dec-08 14:35 098 1 gusting 2 1.8
2019-Dec-08 14:30 094 1 gusting 3 1.6
2019-Dec-08 14:25 104 2 gusting 3 1.7
2019-Dec-08 14:20 097 2 gusting 3 1.3
2019-Dec-08 14:15 098 3 gusting 4 1.1
2019-Dec-08 14:10 104 3 gusting 4 1.0
2019-Dec-08 14:05 112 2 gusting 3 0.9
2019-Dec-08 14:00 085 1 gusting 3 0.8
2019-Dec-08 13:55 038 0 gusting 2 0.8
2019-Dec-08 13:50 082 0 gusting 1 1.1
2019-Dec-08 13:45 142 0 gusting 0 1.5
2019-Dec-08 13:40 123 0 gusting 0 1.1
2019-Dec-08 13:35 123 0 gusting 0 0.4
2019-Dec-08 13:30 -0.9
2019-Dec-08 13:25 -1.4
2019-Dec-08 13:20 -1.7
2019-Dec-08 13:15 -1.9
2019-Dec-08 13:10 -2.1
2019-Dec-08 13:05 351 0 gusting 1 -2.9
2019-Dec-08 13:00 305 0 gusting 1 -3.3
2019-Dec-08 12:55 313 0 gusting 0 -3.4
2019-Dec-08 12:50 334 0 gusting 0 -3.6
2019-Dec-08 12:45 -3.7
2019-Dec-08 12:40 -3.9
2019-Dec-08 12:35 -4.2
2019-Dec-08 12:30 -4.4
2019-Dec-08 12:25 -4.7
2019-Dec-08 12:20 -4.7
2019-Dec-08 12:15 -4.5
2019-Dec-08 12:10 -4.5
2019-Dec-08 12:05 -4.4
2019-Dec-08 12:00 005 0 gusting 0 -4.2
2019-Dec-08 11:55 005 0 gusting 0 -4.4
2019-Dec-08 11:50 -4.5
2019-Dec-08 11:45 -4.6
2019-Dec-08 11:40 -4.8
2019-Dec-08 11:35 -4.8
2019-Dec-08 11:30 -4.3
2019-Dec-08 11:25 -3.9
2019-Dec-08 11:20 005 0 gusting 0 -3.9
2019-Dec-08 11:15 005 0 gusting 0 -3.9
2019-Dec-08 11:10 005 0 gusting 1 -3.9
2019-Dec-08 11:05 005 0 gusting 1 -4.6
2019-Dec-08 11:00 005 0 gusting 0 -4.9
2019-Dec-08 10:55 -4.9
2019-Dec-08 10:50 -4.3
2019-Dec-08 10:45 005 0 gusting 0 -4.1
2019-Dec-08 10:40 005 0 gusting 0 -4.5
2019-Dec-08 10:35 005 0 gusting 0 -5.0
2019-Dec-08 10:30 -4.9
2019-Dec-08 10:25 -4.9
2019-Dec-08 10:20 -4.7
2019-Dec-08 10:15 -4.7
2019-Dec-08 10:10 005 0 gusting 0 -4.7
2019-Dec-08 10:05 005 0 gusting 0 -4.7
2019-Dec-08 10:00 005 0 gusting 0 -4.6
2019-Dec-08 09:55 004 1 gusting 1 -4.0
2019-Dec-08 09:50 005 1 gusting 1 -4.2
2019-Dec-08 09:45 005 0 gusting 0 -4.1
2019-Dec-08 09:40 353 0 gusting 1 -4.2
2019-Dec-08 09:35 329 1 gusting 1 -4.4
2019-Dec-08 09:30 306 0 gusting 1 -4.4
2019-Dec-08 09:25 -4.5
2019-Dec-08 09:20 -4.6
2019-Dec-08 09:15 134 0 gusting 0 -4.6
2019-Dec-08 09:10 -4.4
2019-Dec-08 09:05 -4.2
2019-Dec-08 09:00 267 0 gusting 0 -4.1
2019-Dec-08 08:55 -4.0
2019-Dec-08 08:50 -4.1
2019-Dec-08 08:45 267 0 gusting 0 -4.2
2019-Dec-08 08:40 267 0 gusting 0 -4.2
2019-Dec-08 08:35 267 0 gusting 0 -4.4
2019-Dec-08 08:30 267 0 gusting 0 -4.4
2019-Dec-08 08:25 248 0 gusting 1 -4.3
2019-Dec-08 08:20 245 0 gusting 0 -4.2
2019-Dec-08 08:15 011 0 gusting 0 -4.2
2019-Dec-08 08:10 015 0 gusting 1 -4.2
2019-Dec-08 08:05 360 0 gusting 1 -4.0
2019-Dec-08 08:00 356 0 gusting 1 -4.1
2019-Dec-08 07:55 -4.2
2019-Dec-08 07:50 017 0 gusting 0 -4.0
2019-Dec-08 07:45 017 0 gusting 0 -3.9
2019-Dec-08 07:40 017 0 gusting 0 -3.8
2019-Dec-08 07:35 015 0 gusting 1 -4.0
2019-Dec-08 07:30 002 0 gusting 1 -4.1
2019-Dec-08 07:25 017 0 gusting 0 -4.1
2019-Dec-08 07:20 011 0 gusting 0 -3.7
2019-Dec-08 07:15 013 0 gusting 0 -3.6
2019-Dec-08 07:10 002 0 gusting 0 -3.6
2019-Dec-08 07:05 002 0 gusting 1 -3.6
2019-Dec-08 07:00 -3.9
2019-Dec-08 06:55 260 0 gusting 0 -4.1
2019-Dec-08 06:50 261 0 gusting 1 -4.1
2019-Dec-08 06:45 264 0 gusting 1 -4.2
2019-Dec-08 06:40 -4.0
2019-Dec-08 06:35 -4.0
2019-Dec-08 06:30 -4.1
2019-Dec-08 06:25 -4.3
2019-Dec-08 06:20 -4.0
2019-Dec-08 06:15 -3.8
2019-Dec-08 06:10 -3.7
2019-Dec-08 06:05 -3.7
2019-Dec-08 06:00 -3.8
2019-Dec-08 05:55 -3.7
2019-Dec-08 05:50 -3.4
2019-Dec-08 05:45 -3.2
2019-Dec-08 05:40 -3.3
2019-Dec-08 05:35 298 0 gusting 0 -3.5
2019-Dec-08 05:30 298 0 gusting 1 -3.4
2019-Dec-08 05:25 298 0 gusting 0 -3.4
2019-Dec-08 05:20 -3.6
2019-Dec-08 05:15 -3.9
2019-Dec-08 05:10 -3.8
2019-Dec-08 05:05 -3.3
2019-Dec-08 05:00 -3.2
2019-Dec-08 04:55 -3.3
2019-Dec-08 04:50 -3.4
2019-Dec-08 04:45 -3.5
2019-Dec-08 04:40 -3.5
2019-Dec-08 04:35 -3.4
2019-Dec-08 04:30 -3.3
2019-Dec-08 04:25 243 0 gusting 0 -3.4
2019-Dec-08 04:20 243 0 gusting 1 -3.7
2019-Dec-08 04:15 244 1 gusting 1 -3.9
2019-Dec-08 04:10 217 0 gusting 1 -3.6
2019-Dec-08 04:05 -3.1
2019-Dec-08 04:00 -2.9
2019-Dec-08 03:55 -3.1
2019-Dec-08 03:50 -3.3
2019-Dec-08 03:45 115 0 gusting 1 -3.5
2019-Dec-08 03:40 250 0 gusting 0 -3.3
2019-Dec-08 03:35 250 0 gusting 0 -3.2
2019-Dec-08 03:30 -3.1
2019-Dec-08 03:25 -3.0
2019-Dec-08 03:20 250 0 gusting 0 -3.0
2019-Dec-08 03:15 250 1 gusting 1 -3.0
2019-Dec-08 03:10 250 1 gusting 1 -3.2
2019-Dec-08 03:05 253 1 gusting 1 -3.1
2019-Dec-08 03:00 267 1 gusting 1 -3.0
2019-Dec-08 02:55 272 1 gusting 1 -2.7
2019-Dec-08 02:50 272 0 gusting 1 -2.6
2019-Dec-08 02:45 272 1 gusting 1 -2.6
2019-Dec-08 02:40 262 1 gusting 1 -2.7
2019-Dec-08 02:35 258 1 gusting 1 -2.8
2019-Dec-08 02:30 252 1 gusting 2 -2.8
2019-Dec-08 02:25 242 1 gusting 2 -2.6
2019-Dec-08 02:20 237 1 gusting 2 -2.7
2019-Dec-08 02:15 247 1 gusting 2 -2.8
2019-Dec-08 02:10 262 1 gusting 1 -2.5
2019-Dec-08 02:05 265 1 gusting 1 -2.6
2019-Dec-08 02:00 263 1 gusting 1 -2.6
2019-Dec-08 01:55 257 1 gusting 1 -2.5
2019-Dec-08 01:50 255 1 gusting 1 -2.5
2019-Dec-08 01:45 255 1 gusting 1 -2.6
2019-Dec-08 01:40 259 1 gusting 1 -2.5
2019-Dec-08 01:35 266 1 gusting 1 -2.3
2019-Dec-08 01:30 268 1 gusting 1 -2.3
2019-Dec-08 01:25 266 1 gusting 1 -2.1
2019-Dec-08 01:20 257 1 gusting 1 -2.1
2019-Dec-08 01:15 254 1 gusting 2 -2.2
2019-Dec-08 01:10 247 2 gusting 2 -2.1
2019-Dec-08 01:05 240 1 gusting 2 -2.3
2019-Dec-08 01:00 237 2 gusting 2 -2.4
2019-Dec-08 00:55 248 1 gusting 2 -2.3
2019-Dec-08 00:50 265 1 gusting 1 -2.1
2019-Dec-08 00:45 271 1 gusting 1 -1.8
2019-Dec-08 00:40 260 1 gusting 1 -1.9
2019-Dec-08 00:35 257 1 gusting 1 -1.9
2019-Dec-08 00:30 257 1 gusting 1 -1.9
2019-Dec-08 00:25 260 1 gusting 1 -1.7
2019-Dec-08 00:20 254 1 gusting 1 -1.6
2019-Dec-08 00:15 248 1 gusting 2 -1.6
2019-Dec-08 00:10 247 1 gusting 1 -1.7
2019-Dec-08 00:05 246 1 gusting 1 -1.7
2019-Dec-08 00:00 236 1 gusting 1 -1.7
2019-Dec-07 23:55 244 1 gusting 1 -1.3
2019-Dec-07 23:50 253 1 gusting 2 -1.2
2019-Dec-07 23:45 256 1 gusting 2 -1.3
2019-Dec-07 23:40 258 0 gusting 1 -1.1
2019-Dec-07 23:35 -1.2
2019-Dec-07 23:30 -0.8
2019-Dec-07 23:25 -0.4
2019-Dec-07 23:20 317 0 gusting 1 -0.1
2019-Dec-07 23:15 291 1 gusting 1 0.1
2019-Dec-07 23:10 284 1 gusting 1 0.1
2019-Dec-07 23:05 272 1 gusting 1 -0.2
2019-Dec-07 23:00 253 1 gusting 1 -0.1
2019-Dec-07 22:55 250 1 gusting 1 0.1
2019-Dec-07 22:50 256 1 gusting 1 0.1
2019-Dec-07 22:45 253 1 gusting 1 0.0
2019-Dec-07 22:40 244 1 gusting 1 0.3
2019-Dec-07 22:35 235 1 gusting 1 0.5
2019-Dec-07 22:30 229 1 gusting 1 0.8
2019-Dec-07 22:25 240 0 gusting 1 1.0
2019-Dec-07 22:20 245 0 gusting 0 1.5
2019-Dec-07 22:15 256 0 gusting 0 1.7
2019-Dec-07 22:10 271 0 gusting 0 1.7
2019-Dec-07 22:05 271 0 gusting 0 1.9
2019-Dec-07 22:00 276 1 gusting 1 2.0
2019-Dec-07 21:55 280 1 gusting 1 2.2
2019-Dec-07 21:50 280 1 gusting 1 2.6
2019-Dec-07 21:45 299 1 gusting 2 3.2
2019-Dec-07 21:40 301 1 gusting 3 3.5
2019-Dec-07 21:35 311 1 gusting 2 3.8
2019-Dec-07 21:30 321 2 gusting 4 3.9
2019-Dec-07 21:25 323 1 gusting 3 4.0
2019-Dec-07 21:20 312 1 gusting 2 4.0
2019-Dec-07 21:15 301 1 gusting 2 4.1
2019-Dec-07 21:10 309 2 gusting 4 4.2
2019-Dec-07 21:05 304 3 gusting 4 4.3
2019-Dec-07 21:00 333 3 gusting 6 4.4
2019-Dec-07 20:55 318 3 gusting 6 4.4
2019-Dec-07 20:50 333 5 gusting 7 4.4
2019-Dec-07 20:45 337 2 gusting 5 4.4
2019-Dec-07 20:40 323 2 gusting 4 4.5
2019-Dec-07 20:35 308 3 gusting 7 4.6
2019-Dec-07 20:30 353 4 gusting 8 4.5
2019-Dec-07 20:25 330 4 gusting 6 4.6
2019-Dec-07 20:20 326 5 gusting 8 4.7
2019-Dec-07 20:15 329 3 gusting 6 4.7
2019-Dec-07 20:10 326 4 gusting 7 4.7
2019-Dec-07 20:05 310 5 gusting 7 4.7
2019-Dec-07 20:00 339 5 gusting 8 4.7
2019-Dec-07 19:55 348 4 gusting 8 4.7
2019-Dec-07 19:50 340 5 gusting 9 4.8
2019-Dec-07 19:45 338 5 gusting 8 4.8
2019-Dec-07 19:40 325 5 gusting 8 4.7
2019-Dec-07 19:35 312 8 gusting 13 4.6
2019-Dec-07 19:30 316 6 gusting 12 5.0
2019-Dec-07 19:25 320 5 gusting 9 4.7
2019-Dec-07 19:20 324 5 gusting 9 4.8
2019-Dec-07 19:15 339 5 gusting 9 4.8
2019-Dec-07 19:10 326 4 gusting 8 5.0
2019-Dec-07 19:05 334 5 gusting 8 4.7
2019-Dec-07 19:00 333 5 gusting 8 4.9
2019-Dec-07 18:55 336 6 gusting 11 5.0
2019-Dec-07 18:50 340 5 gusting 9 4.6
2019-Dec-07 18:45 330 6 gusting 10 4.6
2019-Dec-07 18:40 337 5 gusting 9 4.8
2019-Dec-07 18:35 320 6 gusting 10 4.7
2019-Dec-07 18:30 331 5 gusting 11 5.0
2019-Dec-07 18:25 318 5 gusting 11 4.7
2019-Dec-07 18:20 320 7 gusting 11 4.7
2019-Dec-07 18:15 329 5 gusting 8 4.7
2019-Dec-07 18:10 320 6 gusting 8 4.4
2019-Dec-07 18:05 314 7 gusting 11 4.5
2019-Dec-07 18:00 343 6 gusting 9 4.4
2019-Dec-07 17:55 336 7 gusting 10 4.3
2019-Dec-07 17:50 327 6 gusting 10 4.1
2019-Dec-07 17:45 321 8 gusting 11 4.0
2019-Dec-07 17:40 320 6 gusting 9 4.0
2019-Dec-07 17:35 334 6 gusting 10 4.3
2019-Dec-07 17:30 342 4 gusting 9 4.6
2019-Dec-07 17:25 324 4 gusting 9 4.3
2019-Dec-07 17:20 293 6 gusting 10 4.2
2019-Dec-07 17:15 321 4 gusting 6 4.0
2019-Dec-07 17:10 316 6 gusting 9 4.1
2019-Dec-07 17:05 304 4 gusting 6 4.1
2019-Dec-07 17:00 316 4 gusting 7 4.0
2019-Dec-07 16:55 333 4 gusting 7 4.1
2019-Dec-07 16:50 350 4 gusting 8 4.2
2019-Dec-07 16:45 314 6 gusting 9 4.3
2019-Dec-07 16:40 346 3 gusting 8 4.2
2019-Dec-07 16:35 314 7 gusting 11 4.2
2019-Dec-07 16:30 303 7 gusting 10 4.1
2019-Dec-07 16:25 320 6 gusting 10 4.4
2019-Dec-07 16:20 341 4 gusting 7 4.1
2019-Dec-07 16:15 343 5 gusting 8 4.0
2019-Dec-07 16:10 294 5 gusting 10 4.1
2019-Dec-07 16:05 351 3 gusting 5 4.2
2019-Dec-07 16:00 332 4 gusting 7 3.9
2019-Dec-07 15:55 314 4 gusting 6 4.1
2019-Dec-07 15:50 340 4 gusting 6 3.8
2019-Dec-07 15:45 302 5 gusting 8 3.9
2019-Dec-07 15:40 332 3 gusting 8 4.3
2019-Dec-07 15:35 351 4 gusting 7 4.0
2019-Dec-07 15:30 350 3 gusting 7 4.0
2019-Dec-07 15:25 323 2 gusting 4 4.1
2019-Dec-07 15:20 343 1 gusting 4 4.1
2019-Dec-07 15:15 356 1 gusting 4 3.8
2019-Dec-07 15:10 004 4 gusting 6 3.5
2019-Dec-07 15:05 360 3 gusting 5 3.5
2019-Dec-07 15:00 003 4 gusting 8 3.6
2019-Dec-07 14:55 001 4 gusting 7 4.0
2019-Dec-07 14:50 330 4 gusting 7 3.9
2019-Dec-07 14:45 343 2 gusting 6 3.8
2019-Dec-07 14:40 347 3 gusting 5 3.5
2019-Dec-07 14:35 004 2 gusting 6 3.4
2019-Dec-07 14:30 359 2 gusting 5 3.3
2019-Dec-07 14:25 001 4 gusting 5 3.0
2019-Dec-07 14:20 356 2 gusting 4 3.2
2019-Dec-07 14:15 347 1 gusting 3 3.0
2019-Dec-07 14:10 341 1 gusting 2 2.7
2019-Dec-07 14:05 335 2 gusting 4 2.6
2019-Dec-07 14:00 344 1 gusting 3 2.5
2019-Dec-07 13:55 339 1 gusting 1 2.4
2019-Dec-07 13:50 305 0 gusting 1 2.3
2019-Dec-07 13:45 287 0 gusting 1 2.3
2019-Dec-07 13:40 278 0 gusting 1 2.1
2019-Dec-07 13:35 232 0 gusting 0 1.8
2019-Dec-07 13:30 216 0 gusting 0 1.3
2019-Dec-07 13:25 211 0 gusting 0 0.9
2019-Dec-07 13:20 219 0 gusting 1 0.3
2019-Dec-07 13:15 259 0 gusting 1 -0.0
2019-Dec-07 13:10 261 1 gusting 1 -0.6
2019-Dec-07 13:05 257 1 gusting 1 -0.9
2019-Dec-07 13:00 239 1 gusting 1 -1.1